This is the latest recevied weather packets stored in our database for station/object OZ1IEP-5. If no packets are shown the sender has not sent any weather packets the latest 10 day(s).
| Time | Temp. | Humidity | Pressure | Rain* | Wind** | Luminosity | Snow |
|---|---|---|---|---|---|---|---|
| 1788007205 | 18.89° C | 86% | 1004.5 hPa | 0 mm | - | 185 W/m² | - |
| 1788006609 | 18.89° C | 86% | 1004.4 hPa | 0 mm | - | 253 W/m² | - |
| 1788006006 | 18.33° C | 86% | 1004.4 hPa | 0 mm | - | 107 W/m² | - |
| 1788005405 | 18.33° C | 87% | 1004.2 hPa | 0 mm | - | 165 W/m² | - |
| 1788004808 | 18.33° C | 88% | 1004.4 hPa | 0 mm | - | 221 W/m² | - |
| 1788004205 | 17.78° C | 88% | 1004.6 hPa | 0 mm | - | 213 W/m² | - |
| 1788003605 | 17.78° C | 88% | 1004.5 hPa | 0 mm | - | 91 W/m² | - |
| 1788003012 | 18.33° C | 87% | 1004.6 hPa | 0 mm | - | 67 W/m² | - |
| 1788002406 | 18.33° C | 87% | 1004.6 hPa | 0 mm | - | 65 W/m² | - |
| 1788001805 | 18.33° C | 87% | 1004.6 hPa | 0 mm | - | 79 W/m² | - |
| 1788001209 | 18.33° C | 88% | 1004.6 hPa | 0 mm | - | 156 W/m² | - |
| 1788000606 | 18.33° C | 88% | 1004.5 hPa | 0 mm | - | 195 W/m² | - |
| 1788000006 | 18.33° C | 89% | 1004.5 hPa | 0 mm | - | 156 W/m² | - |
| 1787999408 | 17.78° C | 89% | 1004.4 hPa | 0 mm | - | 134 W/m² | - |
| 1787998805 | 17.78° C | 89% | 1004.4 hPa | 0 mm | - | 178 W/m² | - |
| 1787998206 | 17.78° C | 90% | 1004.5 hPa | 0 mm | - | 142 W/m² | - |
| 1787997608 | 17.78° C | 90% | 1004.5 hPa | 0 mm | - | 225 W/m² | - |
| 1787997006 | 17.78° C | 89% | 1004.5 hPa | 0 mm | - | 88 W/m² | - |
| 1787996406 | 17.78° C | 89% | 1004.2 hPa | 0 mm | - | 76 W/m² | - |
| 1787995809 | 17.78° C | 89% | 1004.1 hPa | 0 mm | - | 56 W/m² | - |
| 1787995206 | 17.78° C | 89% | 1004.1 hPa | 0 mm | - | 120 W/m² | - |
| 1787994606 | 17.78° C | 90% | 1004.1 hPa | 0 mm | - | 214 W/m² | - |
| 1787994009 | 17.78° C | 90% | 1004 hPa | 0 mm | - | 199 W/m² | - |
| 1787993406 | 17.22° C | 91% | 1004.1 hPa | 0 mm | - | 227 W/m² | - |
| 1787992805 | 17.22° C | 92% | 1004 hPa | 0 mm | - | 221 W/m² | - |
* Rain latest hour (hover to see other rain measurements)
** Current wind speed in m/s (hover to see current wind gust speed)